YAMAL 401

Last updated on Thu Jul 03 2025 00:02:46 GMT+0000 (Coordinated Universal Time)

1 40345U 14082A 25183.59182734 -.00000221 00000+0 00000+0 0 9993 2 40345 0.0207 20.4019 0000287 109.6207 93.8588 1.00271017 38411
UTC large
Height (km)
Speed (km/s)
/
Latitude / Longitude
Inclination (degrees)
Orbital Period (minutes)
Azimuth
Elevation
Range (km)
Doppler Factor

Next 0 passes for location: London (51.5072 / 0.1276)

Sorry there are no passes over London.